• In Belarus
  • List of Countries
  • For 7 days
  • Water Temperature
  • Satellite Maps
  • Weather Map
  • Weather Widgets
  • user-avatar
    Login

    Hourly Weather Albena

    Today, 18 July, Wednesday

    Time Temperature Precipitation Wind Pressure Humidity
    00:00 +22°C° 0 mm 4 mps 738 mmHg 67%
    01:00 +21°C° 0 mm 5 mps 738 mmHg 69%
    02:00 +21°C° 0 mm 5 mps 738 mmHg 71%
    03:00 +20°C° 0 mm 5 mps 738 mmHg 74%
    04:00 +20°C° 0 mm 6 mps 738 mmHg 76%
    05:00 +19°C° 0 mm 6 mps 738 mmHg 78%
    06:00 +21°C° 0 mm 6 mps 738 mmHg 74%
    07:00 +22°C° 0 mm 6 mps 739 mmHg 70%
    08:00 +23°C° 0 mm 6 mps 739 mmHg 65%
    09:00 +26°C° 0 mm 6 mps 739 mmHg 60%
    10:00 +27°C° 0 mm 6 mps 739 mmHg 56%
    11:00 +29°C° 0 mm 6 mps 739 mmHg 51%
    12:00 +29°C° 0 mm 6 mps 739 mmHg 49%
    13:00 +30°C° 0 mm 5 mps 738 mmHg 48%
    14:00 +30°C° 0 mm 5 mps 738 mmHg 46%
    15:00 +30°C° 0 mm 5 mps 738 mmHg 47%
    16:00 +29°C° 0 mm 6 mps 738 mmHg 48%
    17:00 +29°C° 0 mm 6 mps 738 mmHg 50%
    18:00 +27°C° 0.1 mm 6 mps 738 mmHg 55%
    19:00 +24°C° 0.1 mm 6 mps 738 mmHg 61%
    20:00 +23°C° 0.1 mm 6 mps 738 mmHg 67%
    21:00 +22°C° 0.1 mm 7 mps 738 mmHg 70%
    22:00 +22°C° 0.1 mm 7 mps 738 mmHg 74%
    23:00 +21°C° 0.1 mm 7 mps 738 mmHg 77%

    Tomorrow, 19 July, Thursday

    Time Temperature Precipitation Wind Pressure Humidity
    00:00 +21°C° 0.2 mm 7 mps 738 mmHg 78%
    01:00 +20°C° 0.2 mm 8 mps 738 mmHg 78%
    02:00 +20°C° 0.2 mm 8 mps 738 mmHg 79%
    03:00 +20°C° 0.1 mm 8 mps 738 mmHg 78%
    04:00 +18°C° 0.1 mm 8 mps 738 mmHg 77%
    05:00 +18°C° 0.1 mm 8 mps 738 mmHg 76%
    06:00 +20°C° 0 mm 8 mps 738 mmHg 73%
    07:00 +21°C° 0 mm 8 mps 738 mmHg 71%
    08:00 +22°C° 0 mm 8 mps 738 mmHg 68%
    09:00 +23°C° 0.1 mm 7 mps 739 mmHg 64%
    10:00 +26°C° 0.1 mm 6 mps 739 mmHg 60%
    11:00 +28°C° 0.1 mm 6 mps 739 mmHg 56%
    12:00 +27°C° 0.4 mm 5 mps 739 mmHg 59%
    13:00 +27°C° 0.4 mm 5 mps 739 mmHg 61%
    14:00 +27°C° 0.4 mm 4 mps 739 mmHg 64%
    15:00 +27°C° 0.2 mm 4 mps 739 mmHg 61%
    16:00 +28°C° 0.2 mm 4 mps 739 mmHg 59%
    17:00 +29°C° 0.2 mm 4 mps 739 mmHg 56%
    18:00 +27°C° 0.2 mm 3 mps 739 mmHg 62%
    19:00 +26°C° 0.2 mm 3 mps 739 mmHg 68%
    20:00 +24°C° 0.2 mm 3 mps 739 mmHg 74%
    21:00 +23°C° 0.1 mm 4 mps 739 mmHg 76%
    22:00 +23°C° 0.1 mm 5 mps 740 mmHg 78%
    23:00 +22°C° 0.1 mm 6 mps 740 mmHg 80%

    Day after tomorrow, 20 July, Friday

    Time Temperature Precipitation Wind Pressure Humidity
    00:00 +22°C° 0.1 mm 6 mps 740 mmHg 82%
    01:00 +21°C° 0.1 mm 7 mps 740 mmHg 83%
    02:00 +21°C° 0.1 mm 7 mps 740 mmHg 85%
    03:00 +21°C° 0 mm 7 mps 740 mmHg 86%
    04:00 +20°C° 0 mm 6 mps 740 mmHg 87%
    05:00 +20°C° 0 mm 6 mps 740 mmHg 89%
    06:00 +21°C° 0 mm 6 mps 740 mmHg 83%
    07:00 +23°C° 0 mm 6 mps 741 mmHg 78%
    08:00 +24°C° 0 mm 6 mps 741 mmHg 72%
    09:00 +27°C° 0 mm 5 mps 741 mmHg 66%
    10:00 +28°C° 0 mm 5 mps 741 mmHg 60%
    11:00 +29°C° 0 mm 4 mps 742 mmHg 54%
    12:00 +30°C° 0.7 mm 4 mps 741 mmHg 55%
    13:00 +30°C° 0.7 mm 3 mps 741 mmHg 55%
    14:00 +30°C° 0.7 mm 2 mps 741 mmHg 56%
    15:00 +30°C° 1.6 mm 2 mps 741 mmHg 60%
    16:00 +29°C° 1.6 mm 2 mps 741 mmHg 64%
    17:00 +28°C° 1.6 mm 2 mps 741 mmHg 67%
    18:00 +27°C° 0.6 mm 2 mps 741 mmHg 71%
    19:00 +26°C° 0.6 mm 2 mps 741 mmHg 75%
    20:00 +25°C° 0.6 mm 2 mps 741 mmHg 78%
    21:00 +24°C° 0.2 mm 2 mps 741 mmHg 80%
    22:00 +24°C° 0.2 mm 2 mps 742 mmHg 81%
    23:00 +24°C° 0.2 mm 2 mps 742 mmHg 83%

    21 July, Saturday

    Time Temperature Precipitation Wind Pressure Humidity
    00:00 +22°C° 0.2 mm 3 mps 742 mmHg 84%
    01:00 +22°C° 0.2 mm 3 mps 742 mmHg 85%
    02:00 +22°C° 0.2 mm 3 mps 742 mmHg 86%
    03:00 +21°C° 0.8 mm 3 mps 742 mmHg 88%
    04:00 +21°C° 0.8 mm 3 mps 742 mmHg 89%
    05:00 +21°C° 0.8 mm 4 mps 742 mmHg 90%
    06:00 +22°C° 0.1 mm 4 mps 742 mmHg 85%
    07:00 +24°C° 0.1 mm 3 mps 742 mmHg 81%
    08:00 +25°C° 0.1 mm 3 mps 742 mmHg 76%
    09:00 +26°C° 0.9 mm 3 mps 742 mmHg 71%
    10:00 +27°C° 0.9 mm 3 mps 743 mmHg 66%
    11:00 +29°C° 0.9 mm 2 mps 743 mmHg 61%
    12:00 +29°C° 1 mm 2 mps 742 mmHg 60%
    13:00 +29°C° 1 mm 2 mps 742 mmHg 59%
    14:00 +30°C° 1 mm 2 mps 742 mmHg 59%
    15:00 +29°C° 0.7 mm 2 mps 742 mmHg 60%
    16:00 +29°C° 0.7 mm 2 mps 742 mmHg 61%
    17:00 +29°C° 0.7 mm 2 mps 742 mmHg 63%
    18:00 +28°C° 0.4 mm 2 mps 742 mmHg 68%
    19:00 +26°C° 0.4 mm 2 mps 742 mmHg 73%
    20:00 +25°C° 0.4 mm 1 mps 742 mmHg 78%
    21:00 +24°C° 0.2 mm 1 mps 742 mmHg 79%
    22:00 +24°C° 0.2 mm 1 mps 742 mmHg 81%
    23:00 +24°C° 0.2 mm 1 mps 742 mmHg 82%

    22 July, Sunday

    Time Temperature Precipitation Wind Pressure Humidity
    00:00 +23°C° 0.1 mm 1 mps 742 mmHg 83%
    01:00 +23°C° 0.1 mm 1 mps 742 mmHg 84%
    02:00 +23°C° 0.1 mm 1 mps 741 mmHg 85%
    03:00 +23°C° 0.1 mm 1 mps 741 mmHg 85%
    04:00 +22°C° 0.1 mm 1 mps 741 mmHg 85%
    05:00 +22°C° 0.1 mm 1 mps 741 mmHg 85%
    06:00 +24°C° 0 mm 1 mps 741 mmHg 78%
    07:00 +26°C° 0 mm 1 mps 742 mmHg 72%
    08:00 +26°C° 0 mm 0 mps 742 mmHg 65%
    09:00 +29°C° 0 mm 1 mps 742 mmHg 60%
    10:00 +30°C° 0 mm 2 mps 741 mmHg 54%
    11:00 +31°C° 0 mm 2 mps 741 mmHg 48%
    12:00 +33°C° 0 mm 3 mps 741 mmHg 47%
    13:00 +33°C° 0 mm 3 mps 741 mmHg 46%
    14:00 +33°C° 0 mm 3 mps 740 mmHg 46%
    15:00 +33°C° 0 mm 4 mps 740 mmHg 49%
    16:00 +32°C° 0 mm 4 mps 740 mmHg 52%
    17:00 +30°C° 0 mm 4 mps 740 mmHg 55%
    18:00 +29°C° 0 mm 4 mps 740 mmHg 63%
    19:00 +27°C° 0 mm 4 mps 740 mmHg 70%
    20:00 +25°C° 0 mm 4 mps 739 mmHg 77%
    21:00 +23°C° 0 mm 4 mps 739 mmHg 81%
    22:00 +23°C° 0 mm 4 mps 739 mmHg 84%
    23:00 +23°C° 0 mm 4 mps 739 mmHg 88%

    23 July, Monday

    Time Temperature Precipitation Wind Pressure Humidity
    00:00 +23°C° 0 mm 4 mps 739 mmHg 88%
    01:00 +24°C° 0 mm 3 mps 739 mmHg 89%
    02:00 +24°C° 0 mm 3 mps 739 mmHg 90%
    03:00 +24°C° 0.1 mm 3 mps 738 mmHg 91%
    04:00 +24°C° 0.1 mm 3 mps 738 mmHg 91%
    05:00 +24°C° 0.1 mm 3 mps 738 mmHg 92%
    06:00 +25°C° 0.5 mm 4 mps 738 mmHg 86%
    07:00 +26°C° 0.5 mm 5 mps 738 mmHg 80%
    08:00 +28°C° 0.5 mm 5 mps 738 mmHg 74%
    09:00 +29°C° 1.1 mm 5 mps 738 mmHg 70%
    10:00 +29°C° 1.1 mm 5 mps 738 mmHg 66%
    11:00 +30°C° 1.1 mm 5 mps 738 mmHg 62%
    12:00 +30°C° 0.5 mm 6 mps 738 mmHg 61%
    13:00 +30°C° 0.5 mm 6 mps 737 mmHg 60%
    14:00 +30°C° 0.5 mm 6 mps 737 mmHg 60%
    15:00 +30°C° 0.1 mm 7 mps 737 mmHg 61%
    16:00 +29°C° 0.1 mm 7 mps 737 mmHg 62%
    17:00 +29°C° 0.1 mm 8 mps 737 mmHg 63%
    18:00 +27°C° 0.2 mm 7 mps 737 mmHg 69%
    19:00 +26°C° 0.2 mm 6 mps 737 mmHg 75%
    20:00 +25°C° 0.2 mm 5 mps 738 mmHg 81%
    21:00 +23°C° 1.9 mm 5 mps 738 mmHg 84%
    22:00 +23°C° 1.9 mm 4 mps 738 mmHg 87%
    23:00 +22°C° 1.9 mm 3 mps 738 mmHg 89%
    Show more